STARLINK-1167 (45071 NORAD) Tracking and Keplerian Element Data

This shows tracking and keplerian element data for the satellite.

Feedback or suggestion? Click here.




ElementValue
Catalog45071
NameSTARLINK-1167
Epoch Orbit2453
Epoch Day186.91667824
Epoch Year2020
RAAN216.1469
Inclination52.9973
Eccentricity0.000125
Argument of Perigee111.5401
Mean Anonmoly94.4401
Mean Motion15.05556858
Decay Rate0.00031195
L11 45071U 20006AD 20186.91667824 .00031195 00000-0 21520-2 0 9996
L22 45071 52.9973 216.1469 0001250 111.5401 94.4401 15.05556858 24538

Live tracking and technical data element details for STARLINK-1167 (NORAD 45071). STARLINK-1167 can be tracked NOW for your location showing map with azimuth and elevation plus other details from your city location.

Track the satellite on the map from your city or location and see movement details for azimuth, elevation, latitude, longitude, range, height, and movement on the map or in text.







IsCatalogInMostPopularTable: catalog: 45071, numindb: 27
Update: records affected: 1



GetName: 45071 STARLINK-1167

Hit Count: updated at: Mon, 06 Jul 2020 04:48:01 GMT